Wind_Speed
13 12 12 12 12 12 13 14 14 15 14 14 13 14 13 12 12 12 11 9 8 7 6 4 4 3 3 3 3 3 4 3 3 3 3 3 3 3 2 2 2 2 2 2 2 2 2 2 3
14 14 13 13 13 12 13 14 14 14 14 14 13 13 13 12 12 11 11 10 9 8 7 6 5 4 4 4 4 3 3 3 3 4 3 3 3 3 3 2 2 2 2 2 2 2 2 2 3
14 13 13 13 13 14 14 14 14 14 14 14 13 13 13 12 12 11 11 10 9 8 8 7 5 4 3 4 4 4 4 4 4 3 3 3 3 3 3 3 2 2 2 2 3 3 3 3 3
13 13 12 13 14 14 15 15 15 15 14 14 13 13 13 12 12 11 11 10 10 9 9 8 6 5 5 5 5 5 5 4 3 3 3 3 3 3 2 2 2 2 2 3 3 3 3 3 3
12 13 13 13 14 14 15 16 16 15 14 14 13 13 12 12 11 11 11 11 10 10 10 9 8 7 6 5 5 5 5 4 4 3 3 3 2 2 1 1 1 1 2 2 3 3 4 4 4
12 13 13 14 14 14 14 15 16 15 15 14 13 13 12 12 11 11 11 12 11 11 11 10 9 8 7 7 6 6 5 6 5 4 3 3 2 1 0 1 1 2 2 3 3 4 4 4 5
10 10 12 13 14 14 14 15 16 15 15 14 13 12 12 13 12 12 12 13 13 12 11 11 11 10 9 8 7 6 6 6 5 4 3 2 1 1 0 2 2 2 4 4 4 5 5 5 6
10 10 11 12 13 14 15 15 16 15 15 15 14 13 12 13 13 13 13 13 13 12 12 12 11 10 9 8 8 7 7 6 5 4 4 3 2 1 1 2 2 2 3 4 4 5 5 5 5
10 10 11 12 13 14 14 14 15 14 14 14 14 13 12 13 13 13 13 12 12 12 12 12 11 10 10 9 8 7 7 6 5 4 3 2 2 2 2 2 3 3 4 4 4 4 4 5 6
9 9 10 11 12 13 13 13 14 14 14 13 13 13 13 13 13 13 13 12 12 11 11 11 11 10 9 9 8 7 7 6 5 4 4 3 3 3 2 2 2 3 4 4 4 5 5 6 6
8 10 9 10 11 12 12 13 14 13 13 12 12 13 13 12 12 12 12 12 12 12 12 11 10 10 9 8 8 7 7 6 5 5 4 3 3 3 2 2 2 2 3 5 5 6 6 6 7
7 9 9 10 10 11 12 13 14 13 12 12 12 12 12 12 12 12 12 12 12 12 12 11 11 10 9 9 8 7 6 6 6 5 5 4 4 4 2 2 1 2 3 4 5 6 7 7 8
6 8 8 8 9 10 10 11 12 12 11 11 11 12 12 12 12 11 10 11 11 11 11 11 10 9 9 9 8 8 7 7 7 6 6 6 5 5 3 2 2 2 3 5 6 6 7 8 8
5 6 7 8 8 8 9 9 10 11 10 10 11 11 11 11 11 11 10 10 10 10 10 10 10 10 9 9 8 7 7 7 7 6 5 6 5 5 4 3 2 3 4 6 6 6 7 8 9
3 4 6 7 7 7 7 8 8 9 9 10 10 10 10 10 10 10 9 9 9 9 9 9 9 9 9 8 8 8 7 7 7 6 5 5 5 5 5 4 3 4 5 6 5 6 7 7 8
1 2 4 6 6 6 6 7 6 8 8 8 9 9 9 9 10 10 9 8 8 8 8 8 8 8 8 8 8 8 8 7 7 7 6 5 5 6 6 4 4 4 6 6 6 6 6 7 7
2 1 2 4 5 5 5 5 5 6 7 7 7 8 8 9 9 9 9 8 8 7 7 6 7 7 7 7 7 7 7 7 7 7 6 6 6 6 7 7 6 5 5 5 5 5 6 6 6
4 2 0 2 3 3 4 4 4 5 5 6 6 7 8 8 9 9 9 8 8 7 6 6 6 6 6 6 7 7 7 6 7 7 8 8 8 8 8 7 6 5 5 5 6 6 6 5 6
6 4 1 1 2 3 4 4 4 5 4 5 5 6 7 7 8 8 7 7 7 6 6 6 6 5 5 6 7 7 7 7 7 8 8 8 8 8 8 7 7 7 6 7 7 7 7 6 6
7 5 3 2 3 4 3 4 3 4 4 4 5 5 6 7 7 7 6 6 6 6 6 6 6 6 5 6 7 7 8 8 8 8 9 8 9 8 8 8 7 7 8 8 7 6 7 7 6
9 7 6 5 4 4 4 5 4 4 4 5 6 6 6 6 6 5 5 5 5 5 5 5 6 6 6 6 7 8 8 8 8 8 8 9 9 9 9 8 9 9 9 9 8 8 8 8 8
10 9 7 6 6 5 6 6 5 5 5 5 5 6 6 5 5 5 4 4 5 5 4 5 6 6 6 6 7 8 8 8 8 9 9 9 10 10 9 10 10 10 10 9 9 9 9 9 9
10 10 9 7 7 6 6 6 5 5 5 6 5 6 6 6 6 6 5 5 5 5 5 5 6 6 6 7 7 8 8 8 9 9 9 9 10 11 11 11 12 11 11 11 10 9 10 10 10
12 11 10 9 8 8 7 7 6 6 6 7 7 7 8 8 7 7 6 7 6 6 6 6 6 6 7 7 8 8 8 9 10 10 10 10 11 12 12 13 13 13 13 12 11 10 10 10 10
13 12 12 11 10 10 9 9 7 6 7 7 7 7 7 8 8 8 8 8 7 6 6 7 7 8 8 8 8 9 9 10 11 11 11 12 13 14 15 14 14 13 13 13 12 11 11 11 11
13 13 12 12 12 11 10 10 10 8 8 8 8 7 8 8 9 8 9 9 9 9 8 8 9 9 9 9 9 10 11 11 12 12 13 14 14 15 16 15 15 14 13 13 13 13 13 13 12
15 15 14 14 13 13 11 10 10 10 10 9 8 8 8 9 9 9 10 10 10 10 10 10 10 10 11 11 11 11 12 12 13 14 14 15 16 17 16 16 15 15 14 15 15 14 14 14 14
18 16 17 16 15 15 13 12 11 12 11 11 10 9 9 9 9 10 10 11 10 10 10 11 12 12 12 12 13 12 13 14 14 15 16 16 17 17 16 16 16 17 16 16 15 15 15 15 15
20 19 18 18 18 17 16 14 13 12 11 11 11 11 10 10 10 11 11 11 11 11 12 12 13 13 13 13 13 13 14 14 15 16 17 17 17 18 18 18 18 18 18 17 17 16 16 16 15
22 21 20 19 19 19 18 15 14 14 13 13 12 11 11 11 11 12 12 12 12 12 13 14 13 14 14 14 14 14 14 15 15 16 17 17 18 18 19 19 19 19 19 19 18 18 17 17 17
Wind_Direction
73 69 67 68 65 67 65 60 54 48 42 38 39 40 40 41 47 50 53 53 50 46 48 61 65 76 98 124 126 144 154 155 149 131 122 126 130 128 127 124 135 136 144 161 157 150 155 172 185
75 70 67 65 64 67 63 60 53 47 43 42 41 42 43 44 48 50 50 46 45 46 52 65 70 70 76 89 106 122 127 139 138 130 125 125 126 126 130 143 159 167 173 185 187 190 202 201 212
72 70 67 64 65 65 62 57 51 47 43 42 44 46 48 48 50 50 50 47 48 51 52 57 61 67 76 82 92 102 110 117 125 125 123 118 121 132 140 151 168 184 196 209 213 212 215 221 228
68 68 68 67 65 67 64 59 53 47 45 43 46 49 50 51 51 51 50 48 49 50 50 51 57 68 78 80 83 95 98 100 102 115 111 106 110 128 133 140 169 194 207 217 224 226 226 229 233
68 71 71 68 66 66 64 58 52 49 48 42 43 49 48 52 51 51 49 49 52 52 51 51 61 71 79 83 86 90 90 92 101 103 95 96 112 124 125 123 187 219 226 228 235 239 239 242 244
69 70 72 67 62 63 63 56 52 52 48 42 43 47 46 51 53 53 49 51 52 52 52 53 59 67 79 79 84 93 88 93 101 105 96 92 98 141 227 282 264 250 257 256 247 240 249 252 249
71 67 62 61 60 61 60 56 52 50 47 44 45 50 50 53 54 54 52 50 50 51 54 58 63 70 75 78 79 82 82 83 88 87 82 76 86 107 265 278 285 271 268 265 256 253 254 253 249
75 68 61 60 64 60 58 56 54 50 47 47 47 51 53 56 54 52 50 51 51 52 54 56 62 69 73 78 78 78 77 78 77 67 58 57 45 37 357 319 310 286 270 269 262 254 250 249 251
74 69 68 63 60 57 54 54 55 51 48 47 49 52 55 58 55 51 49 51 52 53 55 58 62 69 74 75 78 77 74 73 70 61 53 50 35 3 339 317 306 291 279 276 270 262 254 256 256
75 70 68 64 59 56 54 55 52 48 48 47 50 51 54 55 51 49 49 51 51 52 53 58 62 68 73 74 76 72 69 69 62 54 44 29 10 358 333 318 300 282 277 275 273 268 264 263 260
71 68 67 64 60 54 52 53 49 47 51 48 50 50 52 52 47 47 49 52 50 51 52 57 61 65 67 67 69 66 61 60 52 46 41 25 7 8 2 342 318 277 275 274 276 267 272 269 263
71 67 65 65 61 53 52 50 47 49 52 52 51 50 51 51 47 44 46 49 51 52 51 54 59 64 68 66 65 66 61 56 53 50 47 36 21 23 20 343 297 269 277 278 282 279 276 273 271
78 71 65 68 60 57 58 51 48 50 53 54 52 49 48 47 43 40 44 50 50 53 54 57 60 65 67 64 64 61 54 54 51 47 44 36 25 20 18 351 313 289 288 290 292 287 280 276 272
79 74 68 63 58 56 54 50 51 49 51 50 49 50 47 45 43 39 42 47 49 52 55 60 61 62 62 62 64 59 52 51 48 45 38 31 19 10 9 358 339 316 305 300 298 294 288 279 272
86 76 72 65 63 57 53 57 54 47 43 44 46 47 45 44 44 42 42 43 46 47 47 53 54 53 57 60 58 50 49 52 44 34 27 19 11 3 352 342 333 327 317 306 298 294 290 289 287
126 88 71 63 53 48 51 57 53 38 34 39 43 46 43 42 42 42 41 42 44 44 45 47 50 50 54 54 53 47 42 41 35 29 23 16 3 358 350 342 330 321 318 316 313 309 298 297 294
201 142 76 55 44 38 43 40 39 28 29 35 33 34 35 36 40 39 39 41 42 42 44 46 44 45 48 48 45 39 36 33 29 24 19 9 2 357 351 347 340 330 328 330 320 316 309 307 307
210 209 146 16 24 26 28 24 20 8 20 27 20 21 28 30 35 33 36 37 37 33 38 41 38 37 38 38 32 25 22 17 14 12 13 11 7 1 352 345 341 339 331 325 320 318 319 319 311
225 220 229 334 337 343 359 356 357 349 355 7 10 13 17 22 26 27 31 37 39 35 29 26 24 24 24 21 17 14 11 8 3 360 2 2 359 354 348 342 334 328 325 323 320 319 316 316 309
228 234 243 275 299 309 330 342 332 330 337 346 351 352 359 6 15 22 23 29 35 35 34 27 19 16 14 9 4 0 1 358 357 355 351 352 350 347 342 337 330 322 319 318 318 319 310 307 305
234 239 246 256 277 298 319 329 322 319 325 336 343 344 344 352 1 6 10 19 18 22 24 15 9 8 3 354 349 349 345 341 341 342 342 342 343 344 343 335 335 330 321 321 316 309 303 297 291
234 243 251 263 273 293 306 319 322 320 316 321 326 335 335 333 346 350 342 346 354 359 2 359 3 358 351 348 343 338 337 336 335 338 336 339 343 342 341 339 334 329 324 318 312 308 304 298 289
238 245 250 258 272 286 295 300 313 315 310 311 314 319 322 321 318 324 327 322 333 341 337 337 346 344 338 335 332 327 329 331 330 330 330 332 335 336 335 333 330 325 321 318 313 306 303 300 295
238 244 247 255 265 278 287 287 289 301 311 316 318 311 311 314 314 307 312 319 321 320 319 323 330 326 324 322 323 324 325 325 324 320 322 324 326 327 326 324 322 321 318 316 312 304 302 301 298
241 246 251 254 261 272 279 279 282 296 304 307 305 311 313 315 314 310 305 307 305 301 307 315 318 316 317 316 318 321 321 319 318 317 319 322 322 320 318 319 319 318 314 312 308 300 299 296 293
244 249 254 261 265 269 274 278 283 289 293 300 298 301 310 313 311 312 310 300 294 294 297 303 312 314 316 317 317 318 317 316 315 315 315 317 318 319 319 316 316 314 309 305 302 298 294 292 290
247 251 255 261 267 272 275 282 284 286 292 297 298 299 307 308 305 303 304 303 295 294 296 300 307 312 315 316 316 311 310 312 313 314 315 314 314 315 317 316 313 309 306 303 300 296 292 290 287
245 250 254 260 266 271 275 281 290 288 289 291 290 293 298 298 299 300 300 300 293 292 296 296 301 307 309 311 314 314 313 310 309 311 313 312 311 314 315 313 310 307 306 301 299 295 291 288 285
249 252 256 259 263 269 274 279 285 286 286 289 291 292 291 291 296 296 298 299 295 293 296 296 299 302 305 308 311 311 313 313 312 311 311 313 312 312 310 310 309 308 307 302 300 297 295 292 286
249 250 254 258 262 269 273 276 280 282 286 286 290 291 292 292 298 304 301 300 301 298 297 299 302 303 302 304 307 309 312 314 313 313 313 314 314 311 310 309 308 306 303 302 299 295 296 294 290
Height
5879 5878 5878 5878 5877 5876 5874 5873 5872 5871 5871 5870 5869 5868 5867 5867 5866 5867 5864 5862 5862 5862 5861 5861 5861 5861 5861 5861 5862 5862 5863 5864 5865 5866 5867 5867 5868 5869 5870 5871 5872 5873 5874 5874 5875 5875 5875 5876 5877
5881 5881 5881 5880 5878 5877 5876 5875 5874 5873 5873 5871 5870 5869 5868 5867 5867 5866 5864 5864 5863 5863 5862 5861 5861 5861 5861 5861 5862 5862 5863 5864 5865 5865 5866 5867 5868 5869 5870 5871 5872 5873 5873 5874 5875 5875 5876 5877 5877
5883 5883 5883 5881 5879 5878 5878 5876 5875 5875 5874 5873 5872 5870 5870 5869 5868 5867 5866 5865 5864 5863 5862 5861 5861 5861 5861 5861 5862 5862 5863 5864 5865 5865 5866 5867 5868 5869 5870 5871 5872 5873 5873 5874 5875 5875 5876 5877 5877
5885 5885 5885 5883 5881 5880 5879 5878 5877 5876 5875 5874 5873 5872 5871 5870 5869 5868 5867 5866 5865 5864 5863 5862 5861 5860 5860 5861 5861 5862 5863 5863 5864 5865 5866 5867 5868 5869 5870 5871 5871 5872 5873 5873 5874 5875 5875 5876 5877
5887 5887 5886 5884 5882 5881 5880 5879 5878 5877 5876 5876 5875 5874 5873 5872 5871 5870 5869 5867 5866 5864 5863 5862 5860 5860 5860 5861 5861 5862 5862 5863 5864 5865 5866 5867 5868 5869 5869 5870 5871 5871 5872 5873 5873 5874 5874 5875 5876
5889 5888 5887 5886 5884 5883 5882 5881 5880 5879 5878 5877 5876 5875 5874 5874 5873 5871 5870 5869 5867 5865 5864 5862 5860 5859 5860 5861 5862 5863 5863 5863 5864 5865 5866 5867 5868 5868 5869 5870 5870 5870 5871 5872 5872 5873 5873 5874 5875
5891 5890 5889 5888 5887 5885 5884 5883 5882 5881 5879 5878 5878 5877 5876 5875 5874 5873 5871 5870 5868 5867 5866 5864 5862 5861 5861 5862 5863 5864 5864 5864 5865 5865 5866 5867 5867 5868 5868 5868 5869 5869 5870 5871 5871 5871 5872 5873 5873
5892 5892 5890 5889 5888 5888 5887 5885 5883 5883 5881 5880 5879 5878 5877 5877 5876 5874 5873 5872 5870 5869 5867 5866 5864 5864 5863 5863 5865 5865 5865 5865 5866 5866 5866 5867 5867 5867 5867 5868 5868 5868 5868 5869 5869 5870 5870 5871 5871
5893 5894 5892 5891 5890 5890 5888 5887 5886 5885 5883 5882 5881 5880 5880 5878 5877 5876 5875 5874 5872 5871 5869 5868 5867 5866 5866 5866 5866 5866 5866 5866 5866 5866 5866 5866 5866 5866 5866 5867 5867 5867 5867 5867 5868 5868 5869 5869 5869
5895 5895 5894 5893 5892 5891 5890 5889 5888 5887 5885 5884 5883 5882 5881 5880 5879 5878 5877 5875 5874 5872 5871 5870 5869 5868 5868 5867 5867 5867 5867 5867 5867 5867 5867 5866 5865 5865 5865 5865 5865 5865 5866 5866 5866 5866 5867 5867 5867
5896 5896 5895 5895 5894 5893 5892 5891 5890 5888 5887 5886 5885 5884 5883 5882 5881 5880 5878 5877 5875 5874 5872 5871 5870 5869 5869 5869 5869 5869 5868 5868 5868 5867 5867 5866 5865 5864 5863 5863 5864 5864 5864 5864 5864 5864 5865 5865 5865
5898 5897 5896 5896 5895 5894 5893 5892 5891 5890 5889 5888 5887 5886 5885 5883 5883 5882 5880 5879 5877 5875 5874 5872 5871 5871 5871 5870 5870 5870 5870 5869 5869 5868 5867 5866 5865 5863 5862 5862 5863 5863 5863 5863 5863 5863 5863 5863 5863
5899 5898 5898 5896 5896 5895 5894 5894 5893 5892 5891 5890 5889 5887 5886 5885 5884 5883 5881 5880 5879 5877 5875 5874 5873 5873 5872 5872 5872 5872 5871 5870 5870 5869 5868 5867 5865 5864 5863 5862 5862 5862 5862 5861 5861 5861 5860 5860 5861
5899 5899 5899 5898 5897 5896 5896 5895 5894 5893 5892 5891 5890 5889 5888 5887 5886 5885 5883 5882 5880 5879 5878 5876 5875 5875 5874 5874 5874 5873 5872 5871 5870 5869 5868 5867 5866 5865 5863 5862 5862 5862 5861 5860 5859 5859 5858 5857 5858
5899 5899 5900 5899 5898 5897 5897 5896 5896 5894 5893 5892 5891 5890 5889 5888 5887 5886 5884 5883 5882 5881 5879 5878 5877 5876 5876 5875 5875 5874 5873 5872 5871 5870 5869 5868 5867 5866 5865 5863 5862 5861 5860 5859 5857 5856 5856 5855 5855
5900 5899 5899 5899 5899 5898 5899 5898 5897 5895 5894 5893 5892 5891 5890 5889 5888 5886 5885 5884 5883 5882 5881 5880 5879 5878 5877 5877 5876 5875 5874 5873 5872 5871 5870 5869 5867 5866 5865 5863 5862 5860 5859 5857 5856 5855 5855 5855 5854
5900 5900 5900 5900 5899 5899 5898 5898 5897 5896 5895 5894 5893 5891 5890 5889 5888 5887 5886 5885 5884 5882 5881 5880 5880 5879 5878 5878 5877 5876 5875 5874 5873 5871 5870 5869 5867 5866 5865 5863 5862 5860 5859 5857 5856 5855 5854 5854 5853
5900 5900 5900 5900 5900 5899 5898 5898 5897 5896 5895 5894 5893 5892 5890 5889 5888 5887 5886 5885 5884 5883 5882 5881 5880 5880 5879 5878 5878 5877 5876 5875 5873 5872 5870 5869 5867 5866 5864 5863 5862 5860 5859 5857 5856 5855 5854 5853 5852
5899 5900 5899 5900 5899 5899 5898 5898 5897 5896 5895 5894 5893 5892 5891 5890 5889 5888 5887 5885 5884 5883 5883 5882 5881 5880 5880 5879 5878 5877 5876 5875 5873 5872 5870 5869 5867 5866 5864 5863 5861 5860 5858 5857 5855 5854 5853 5852 5852
5898 5898 5898 5899 5898 5898 5897 5897 5896 5896 5895 5894 5893 5892 5891 5890 5889 5888 5887 5886 5885 5884 5883 5882 5881 5881 5880 5879 5878 5877 5876 5874 5873 5872 5870 5868 5867 5865 5864 5862 5861 5859 5858 5856 5854 5853 5853 5852 5851
5897 5897 5898 5898 5897 5897 5897 5897 5896 5896 5895 5894 5893 5892 5891 5890 5889 5888 5887 5886 5885 5884 5883 5882 5881 5880 5880 5879 5877 5876 5875 5874 5872 5871 5869 5868 5866 5865 5863 5861 5860 5858 5857 5855 5853 5852 5851 5850 5850
5895 5896 5896 5896 5896 5896 5896 5896 5896 5895 5894 5894 5893 5892 5890 5889 5888 5888 5887 5885 5884 5884 5883 5882 5881 5880 5879 5878 5877 5876 5874 5873 5871 5870 5868 5867 5865 5863 5862 5860 5858 5857 5855 5853 5852 5851 5849 5849 5848
5893 5894 5894 5895 5895 5895 5895 5895 5896 5894 5894 5893 5893 5892 5890 5889 5888 5887 5886 5885 5884 5883 5882 5881 5880 5879 5878 5877 5876 5875 5873 5872 5870 5869 5867 5865 5864 5862 5860 5859 5857 5855 5853 5851 5850 5848 5847 5847 5846
5891 5892 5892 5893 5893 5894 5894 5893 5894 5893 5893 5892 5892 5891 5889 5888 5887 5885 5884 5883 5882 5882 5881 5880 5879 5878 5877 5875 5874 5873 5872 5870 5869 5867 5866 5864 5862 5860 5859 5857 5854 5852 5851 5849 5848 5846 5845 5844 5844
5889 5890 5891 5891 5891 5892 5892 5891 5893 5892 5892 5891 5890 5889 5888 5887 5885 5884 5883 5882 5881 5880 5879 5878 5877 5876 5875 5874 5872 5871 5870 5869 5867 5866 5864 5862 5860 5858 5856 5854 5852 5850 5848 5847 5845 5844 5843 5842 5841
5886 5888 5889 5889 5889 5890 5890 5889 5891 5891 5890 5889 5888 5887 5886 5885 5883 5882 5881 5879 5878 5878 5877 5876 5875 5874 5873 5872 5870 5869 5868 5867 5865 5864 5862 5860 5858 5855 5853 5851 5849 5847 5846 5844 5842 5841 5840 5839 5838
5883 5884 5886 5887 5886 5887 5887 5888 5888 5888 5887 5886 5886 5885 5884 5883 5881 5880 5879 5878 5876 5875 5875 5874 5873 5872 5871 5870 5868 5867 5865 5864 5863 5861 5859 5857 5854 5852 5850 5848 5846 5844 5842 5840 5839 5837 5836 5835 5834
5880 5881 5883 5883 5883 5884 5885 5885 5886 5885 5885 5885 5884 5883 5882 5881 5880 5878 5877 5876 5874 5873 5873 5872 5871 5870 5868 5867 5866 5864 5863 5861 5859 5858 5855 5853 5851 5849 5846 5844 5842 5840 5839 5837 5835 5833 5832 5831 5830
5877 5878 5879 5880 5880 5881 5881 5884 5883 5882 5882 5882 5881 5881 5880 5878 5877 5876 5875 5873 5872 5871 5870 5869 5868 5867 5866 5864 5863 5861 5860 5858 5856 5854 5852 5850 5847 5845 5843 5841 5839 5837 5835 5833 5831 5829 5828 5826 5825
5872 5874 5875 5877 5877 5877 5878 5882 5879 5879 5879 5879 5878 5877 5876 5876 5874 5873 5872 5871 5870 5869 5868 5866 5865 5864 5862 5861 5859 5858 5856 5854 5852 5850 5848 5846 5844 5842 5839 5837 5835 5833 5831 5829 5827 5825 5824 5822 5821